When you browse on this site, cookies collect data to enhance your experience and personalize the content and advertising you see.
Visit our Privacy Policy to learn more. By continuing to use the site, you agree to this use of cookies and data.
  • In Germany
  • List of Countries
  • For 7 days
  • Water Temperature
  • Weather Map
  • Weather Widgets
  • user-avatar
    Login

    Hourly Weather Orange Walk

    Today, 24 September, Tuesday

    Time Temperature Precipitation Wind Pressure Humidity
    00:00 +27°C° 0 mm 1 mps 755 mmHg 92%
    01:00 +26°C° 0 mm 1 mps 755 mmHg 93%
    02:00 +26°C° 0 mm 1 mps 755 mmHg 93%
    03:00 +26°C° 0 mm 1 mps 755 mmHg 93%
    04:00 +26°C° 0 mm 1 mps 755 mmHg 93%
    05:00 +26°C° 0 mm 1 mps 755 mmHg 93%
    06:00 +26°C° 0 mm 1 mps 755 mmHg 94%
    07:00 +28°C° 0 mm 1 mps 756 mmHg 85%
    08:00 +30°C° 0 mm 1 mps 756 mmHg 76%
    09:00 +32°C° 0 mm 1 mps 756 mmHg 67%
    10:00 +34°C° 0 mm 1 mps 756 mmHg 60%
    11:00 +36°C° 0 mm 1 mps 755 mmHg 53%
    12:00 +36°C° 0 mm 0 mps 755 mmHg 47%
    13:00 +39°C° 0 mm 1 mps 754 mmHg 47%
    14:00 +37°C° 0 mm 1 mps 754 mmHg 47%
    15:00 +37°C° 0 mm 1 mps 753 mmHg 48%
    16:00 +36°C° 0.1 mm 2 mps 753 mmHg 58%
    17:00 +32°C° 0.1 mm 2 mps 753 mmHg 68%
    18:00 +30°C° 0.1 mm 2 mps 753 mmHg 78%
    19:00 +29°C° 0.2 mm 2 mps 754 mmHg 82%
    20:00 +28°C° 0.2 mm 1 mps 755 mmHg 85%
    21:00 +28°C° 0.2 mm 1 mps 755 mmHg 89%
    22:00 +27°C° 0.1 mm 1 mps 755 mmHg 90%
    23:00 +27°C° 0.1 mm 1 mps 755 mmHg 91%

    Tomorrow, 25 September, Wednesday

    Time Temperature Precipitation Wind Pressure Humidity
    00:00 +27°C° 0.1 mm 1 mps 755 mmHg 93%
    01:00 +27°C° 0 mm 1 mps 755 mmHg 93%
    02:00 +26°C° 0 mm 1 mps 755 mmHg 94%
    03:00 +24°C° 0 mm 0 mps 755 mmHg 95%
    04:00 +26°C° 0.1 mm 1 mps 755 mmHg 95%
    05:00 +26°C° 0.1 mm 1 mps 755 mmHg 96%
    06:00 +26°C° 0.1 mm 1 mps 755 mmHg 97%
    07:00 +28°C° 0 mm 1 mps 755 mmHg 89%
    08:00 +30°C° 0 mm 1 mps 756 mmHg 81%
    09:00 +32°C° 0 mm 1 mps 756 mmHg 72%
    10:00 +31°C° 0 mm 0 mps 756 mmHg 65%
    11:00 +33°C° 0 mm 0 mps 755 mmHg 57%
    12:00 +35°C° 0 mm 0 mps 754 mmHg 50%
    13:00 +37°C° 0 mm 1 mps 754 mmHg 50%
    14:00 +37°C° 0 mm 1 mps 753 mmHg 51%
    15:00 +36°C° 0 mm 1 mps 753 mmHg 51%
    16:00 +35°C° 0.4 mm 2 mps 753 mmHg 62%
    17:00 +32°C° 0.4 mm 2 mps 753 mmHg 73%
    18:00 +29°C° 0.4 mm 2 mps 753 mmHg 84%
    19:00 +29°C° 0.5 mm 2 mps 754 mmHg 87%
    20:00 +28°C° 0.5 mm 2 mps 754 mmHg 90%
    21:00 +28°C° 0.5 mm 1 mps 755 mmHg 93%
    22:00 +27°C° 1.6 mm 1 mps 755 mmHg 94%
    23:00 +27°C° 1.6 mm 1 mps 754 mmHg 95%

    Day after tomorrow, 26 September, Thursday

    Time Temperature Precipitation Wind Pressure Humidity
    00:00 +27°C° 1.6 mm 1 mps 754 mmHg 97%
    01:00 +27°C° 0.9 mm 1 mps 754 mmHg 97%
    02:00 +24°C° 0.9 mm 0 mps 754 mmHg 97%
    03:00 +24°C° 0.9 mm 0 mps 754 mmHg 97%
    04:00 +24°C° 0.1 mm 0 mps 754 mmHg 97%
    05:00 +24°C° 0.1 mm 0 mps 754 mmHg 97%
    06:00 +24°C° 0.1 mm 0 mps 754 mmHg 97%
    07:00 +26°C° 0 mm 0 mps 755 mmHg 90%
    08:00 +28°C° 0 mm 0 mps 755 mmHg 83%
    09:00 +30°C° 0 mm 0 mps 755 mmHg 76%
    10:00 +33°C° 0.3 mm 1 mps 755 mmHg 69%
    11:00 +34°C° 0.3 mm 1 mps 755 mmHg 63%
    12:00 +35°C° 0.3 mm 1 mps 754 mmHg 56%
    13:00 +36°C° 1.1 mm 2 mps 753 mmHg 59%
    14:00 +35°C° 1.1 mm 2 mps 753 mmHg 62%
    15:00 +35°C° 1.1 mm 2 mps 752 mmHg 65%
    16:00 +32°C° 0.1 mm 2 mps 752 mmHg 71%
    17:00 +31°C° 0.1 mm 2 mps 752 mmHg 76%
    18:00 +29°C° 0.1 mm 2 mps 752 mmHg 82%
    19:00 +29°C° 0.1 mm 2 mps 753 mmHg 86%
    20:00 +28°C° 0.1 mm 2 mps 754 mmHg 89%
    21:00 +28°C° 0.1 mm 1 mps 754 mmHg 93%
    22:00 +27°C° 1.1 mm 1 mps 754 mmHg 94%
    23:00 +27°C° 1.1 mm 1 mps 754 mmHg 95%

    27 September, Friday

    Time Temperature Precipitation Wind Pressure Humidity
    00:00 +27°C° 1.1 mm 1 mps 754 mmHg 96%
    01:00 +27°C° 0.7 mm 1 mps 754 mmHg 96%
    02:00 +27°C° 0.7 mm 1 mps 754 mmHg 96%
    03:00 +26°C° 0.7 mm 1 mps 753 mmHg 96%
    04:00 +26°C° 0.3 mm 1 mps 753 mmHg 96%
    05:00 +24°C° 0.3 mm 0 mps 754 mmHg 96%
    06:00 +24°C° 0.3 mm 0 mps 754 mmHg 96%
    07:00 +26°C° 0.1 mm 0 mps 754 mmHg 90%
    08:00 +30°C° 0.1 mm 1 mps 755 mmHg 84%
    09:00 +31°C° 0.1 mm 1 mps 755 mmHg 78%
    10:00 +32°C° 0.6 mm 2 mps 755 mmHg 76%
    11:00 +32°C° 0.6 mm 2 mps 754 mmHg 73%
    12:00 +34°C° 0.6 mm 3 mps 754 mmHg 71%
    13:00 +34°C° 0.2 mm 3 mps 753 mmHg 69%
    14:00 +34°C° 0.2 mm 3 mps 753 mmHg 67%
    15:00 +34°C° 0.2 mm 3 mps 752 mmHg 65%
    16:00 +33°C° 0 mm 3 mps 752 mmHg 72%
    17:00 +30°C° 0 mm 2 mps 753 mmHg 78%
    18:00 +29°C° 0 mm 2 mps 753 mmHg 85%
    19:00 +29°C° 0 mm 2 mps 753 mmHg 88%
    20:00 +28°C° 0 mm 1 mps 754 mmHg 91%
    21:00 +28°C° 0 mm 1 mps 754 mmHg 95%
    22:00 +28°C° 0.1 mm 1 mps 754 mmHg 95%
    23:00 +28°C° 0.1 mm 1 mps 754 mmHg 95%

    28 September, Saturday

    Time Temperature Precipitation Wind Pressure Humidity
    00:00 +28°C° 0.1 mm 2 mps 754 mmHg 96%
    01:00 +28°C° 0.4 mm 1 mps 754 mmHg 96%
    02:00 +28°C° 0.4 mm 1 mps 753 mmHg 96%
    03:00 +28°C° 0.4 mm 1 mps 753 mmHg 96%
    04:00 +28°C° 0.7 mm 2 mps 753 mmHg 96%
    05:00 +28°C° 0.7 mm 2 mps 754 mmHg 96%
    06:00 +28°C° 0.7 mm 2 mps 754 mmHg 96%
    07:00 +30°C° 0.4 mm 3 mps 754 mmHg 89%
    08:00 +31°C° 0.4 mm 3 mps 755 mmHg 82%
    09:00 +34°C° 0.4 mm 4 mps 755 mmHg 75%
    10:00 +34°C° 1.3 mm 4 mps 755 mmHg 72%
    11:00 +35°C° 1.3 mm 4 mps 755 mmHg 69%
    12:00 +35°C° 1.3 mm 4 mps 755 mmHg 66%
    13:00 +35°C° 0.1 mm 4 mps 754 mmHg 66%
    14:00 +35°C° 0.1 mm 4 mps 754 mmHg 66%
    15:00 +35°C° 0.1 mm 4 mps 753 mmHg 65%
    16:00 +34°C° 0 mm 4 mps 753 mmHg 71%
    17:00 +31°C° 0 mm 3 mps 754 mmHg 76%
    18:00 +30°C° 0 mm 2 mps 754 mmHg 82%
    19:00 +29°C° 0 mm 2 mps 754 mmHg 84%
    20:00 +29°C° 0 mm 2 mps 755 mmHg 86%
    21:00 +28°C° 0 mm 2 mps 755 mmHg 88%
    22:00 +28°C° 1.4 mm 2 mps 755 mmHg 90%
    23:00 +28°C° 1.4 mm 1 mps 755 mmHg 92%

    29 September, Sunday

    Time Temperature Precipitation Wind Pressure Humidity
    00:00 +27°C° 1.4 mm 1 mps 755 mmHg 95%
    01:00 +27°C° 0.3 mm 1 mps 755 mmHg 95%
    02:00 +27°C° 0.3 mm 1 mps 755 mmHg 95%
    03:00 +27°C° 0.3 mm 1 mps 755 mmHg 95%
    04:00 +27°C° 0.5 mm 1 mps 755 mmHg 95%
    05:00 +27°C° 0.5 mm 1 mps 755 mmHg 95%
    06:00 +27°C° 0.5 mm 1 mps 756 mmHg 95%
    07:00 +29°C° 0.6 mm 2 mps 756 mmHg 89%
    08:00 +30°C° 0.6 mm 3 mps 756 mmHg 84%
    09:00 +33°C° 0.6 mm 3 mps 757 mmHg 78%
    10:00 +33°C° 1.4 mm 3 mps 756 mmHg 79%
    11:00 +33°C° 1.4 mm 3 mps 756 mmHg 79%
    12:00 +33°C° 1.4 mm 3 mps 756 mmHg 80%
    13:00 +33°C° 0.8 mm 3 mps 755 mmHg 78%
    14:00 +33°C° 0.8 mm 3 mps 755 mmHg 76%
    15:00 +34°C° 0.8 mm 3 mps 754 mmHg 74%
    16:00 +31°C° 0 mm 3 mps 754 mmHg 78%
    17:00 +30°C° 0 mm 2 mps 754 mmHg 83%
    18:00 +29°C° 0 mm 2 mps 755 mmHg 87%
    19:00 +29°C° 0 mm 1 mps 755 mmHg 89%
    20:00 +28°C° 0 mm 1 mps 756 mmHg 92%
    21:00 +28°C° 0 mm 1 mps 756 mmHg 94%
    22:00 +28°C° 0 mm 1 mps 756 mmHg 95%
    23:00 +28°C° 0 mm 1 mps 756 mmHg 95%
    Show more